Vorticity
5 5 4 4 3 3 4 5 4 4 9 14 15 11 10 12 11 16 20 27 28 27
3 1 3 2 5 6 6 5 5 9 11 12 9 9 10 14 23 25 22 21 19 16
2 5 4 6 5 7 5 5 10 9 10 9 9 15 11 20 35 24 13 24 31 21
3 5 4 6 6 6 6 6 9 9 11 8 16 22 34 29 33 -3 6 27 29 27
8 4 5 7 7 6 8 9 11 13 14 29 38 26 34 15 2 4 37 33 23 15
0 2 6 7 9 12 12 13 12 14 30 27 19 21 21 -1 -2 -6 41 13 10 9
1 3 9 10 12 7 9 9 16 30 30 32 32 19 10 -14 16 49 12 7 7 9
1 7 9 10 9 12 11 25 34 32 24 46 3 3 24 7 33 7 3 9 8 7
7 9 10 9 11 11 26 40 35 24 23 23 6 18 -6 39 4 4 9 8 7 21
8 12 10 11 11 31 43 31 25 30 18 24 10 3 44 4 7 9 6 15 18 10
11 11 11 10 32 42 35 27 30 32 34 26 32 29 3 9 6 8 20 17 11 18
9 11 12 30 46 38 15 12 3 6 9 11 7 6 8 5 10 22 15 12 14 18
9 13 30 34 45 11 5 14 4 8 9 7 11 8 7 7 17 16 13 14 24 14
14 28 31 38 30 5 8 7 8 6 7 8 12 5 9 9 20 11 12 21 19 16
Height
5709 5701 5693 5684 5674 5662 5649 5638 5627 5616 5605 5593 5581 5569 5560 5549 5537 5525 5514 5506 5497 5491
5694 5685 5675 5664 5653 5642 5630 5618 5607 5593 5580 5567 5555 5542 5532 5522 5510 5498 5487 5480 5472 5465
5679 5668 5657 5646 5634 5621 5609 5596 5582 5569 5556 5543 5530 5518 5507 5497 5486 5476 5467 5459 5453 5446
5661 5652 5641 5630 5616 5602 5588 5576 5563 5549 5535 5520 5508 5495 5483 5475 5466 5458 5449 5440 5433 5429
5649 5637 5624 5611 5597 5584 5571 5557 5542 5529 5514 5496 5481 5471 5465 5457 5450 5442 5434 5425 5420 5416
5632 5619 5606 5594 5581 5565 5549 5534 5518 5502 5487 5475 5463 5456 5452 5445 5438 5429 5421 5415 5410 5406
5615 5603 5590 5576 5561 5543 5525 5507 5491 5476 5468 5457 5449 5444 5440 5435 5425 5417 5411 5406 5400 5394
5599 5583 5566 5549 5533 5519 5503 5487 5471 5459 5450 5443 5438 5434 5429 5423 5414 5408 5402 5395 5388 5381
5579 5563 5545 5528 5514 5499 5484 5470 5458 5446 5438 5433 5429 5424 5419 5413 5406 5399 5392 5385 5377 5369
5560 5544 5527 5511 5496 5479 5464 5453 5444 5436 5429 5423 5420 5415 5411 5405 5398 5391 5382 5373 5365 5358
5540 5525 5509 5493 5478 5463 5452 5443 5435 5428 5422 5417 5413 5409 5403 5396 5388 5380 5370 5362 5354 5347
5521 5506 5490 5475 5462 5452 5444 5438 5431 5425 5419 5413 5408 5402 5396 5389 5380 5370 5361 5353 5344 5337
5502 5489 5474 5461 5451 5444 5437 5432 5426 5420 5414 5409 5402 5396 5388 5380 5371 5362 5355 5347 5338 5331
5484 5472 5460 5449 5441 5436 5431 5425 5420 5415 5409 5402 5396 5388 5380 5371 5362 5355 5348 5340 5333 5326